Вернуться в каталог

DMSP 5D-2 F13 DEB

АктивенSSO
NORAD 40509·DEBRIS·🇺🇸 United States

Запущен Mar 24, 1995 с Vandenberg Space Force Base

Loading…

Ближайшие Пролёты (ближайшие 24 часа)

TLE

СвежийSource: Space-Track

Эпоха: Sep 13, 2026, 23:21 UTC

1 40509U 95015CV  26256.97323065  .00000325  00000-0  16296-3 0  9991
2 40509  98.6456 271.5902 0024439  79.0889 281.3038 14.22956325595279

Отслеживайте DMSP 5D-2 F13 DEB в реальном времени с AllMySat

Download on the App Store